DW4075 Weather Reports


Display with metric or nautical units.
time (UTC)temp
F
wind
direction
speed
MPH
gust
MPH
rain 1hr
in
rain 24hr
in
rain mn
in
humidity
%
barometer
mb
20260902155150 73 117 1.0 6.0 0.00 0.00 0.00 57 1027.3
20260902154651 72 124 2.0 6.0 0.00 0.00 0.00 60 1027.3
20260902154416 71 25 2.0 6.0 0.00 0.00 0.00 60 1027.3
20260902153650 71 25 3.0 6.0 0.00 0.00 0.00 59 1027.3
20260902153151 71 24 1.0 5.0 0.00 0.00 0.00 60 1027.3
20260902152651 71 24 2.0 5.0 0.00 0.00 0.00 58 1027.4
20260902152151 71 24 0.0 5.0 0.00 0.00 0.00 58 1027.4
20260902151650 71 24 2.0 5.0 0.00 0.00 0.00 57 1027.3
20260902151151 71 23 2.0 6.0 0.00 0.00 0.00 59 1027.3
20260902150651 70 23 2.0 6.0 0.00 0.00 0.00 60 1027.3
20260902150148 70 21 2.0 5.0 0.00 0.00 0.00 60 1027.3
20260902145908 69 21 2.0 5.0 0.00 0.00 0.00 61 1027.4
20260902145148 69 23 2.0 5.0 0.00 0.00 0.00 61 1027.3
20260902144648 69 21 1.0 5.0 0.00 0.00 0.00 63 1027.3
20260902144635 68 21 1.0 5.0 0.00 0.00 0.00 63 1027.4
20260902143645 67 21 1.0 4.0 0.00 0.00 0.00 64 1027.3
20260902143136 67 21 2.0 4.0 0.00 0.00 0.00 64 1027.4
20260902142633 67 21 0.0 2.0 0.00 0.00 0.00 65 1027.3
20260902142132 66 21 0.0 3.0 0.00 0.00 0.00 67 1027.3
20260902141629 65 21 0.0 3.0 0.00 0.00 0.00 69 1027.2
20260902141130 65 21 0.0 1.0 0.00 0.00 0.00 71 1027.2
20260902140630 64 21 0.0 1.0 0.00 0.00 0.00 73 1027.2
20260902140131 63 21 0.0 1.0 0.00 0.00 0.00 77 1027.0
20260902135856 62 21 0.0 1.0 0.00 0.00 0.00 79 1027.0
20260902135354 60 21 0.0 1.0 0.00 0.00 0.00 82 1026.9
20260902134630 59 21 0.0 2.0 0.00 0.00 0.00 85 1026.9
20260902134130 57 21 0.0 2.0 0.00 0.00 0.00 87 1026.8
20260902133852 55 21 0.0 0.0 0.00 0.00 0.00 88 1026.8
20260902133130 54 21 0.0 0.0 0.00 0.00 0.00 89 1026.8
20260902132629 53 21 0.0 0.0 0.00 0.00 0.00 90 1026.4
20260902132128 52 21 0.0 0.0 0.00 0.00 0.00 90 1026.6
20260902132109 52 21 0.0 0.0 0.00 0.00 0.00 88 1026.4
20260902131126 51 21 0.0 0.0 0.00 0.00 0.00 87 1026.6
20260902130624 51 21 0.0 0.0 0.00 0.00 0.00 87 1026.4
20260902130122 51 21 0.0 0.0 0.00 0.00 0.00 87 1026.3
20260902125623 51 21 0.0 0.0 0.00 0.00 0.00 87 1026.3
20260902125121 51 21 0.0 0.0 0.00 0.00 0.00 86 1026.4
20260902124619 51 21 0.0 0.0 0.00 0.00 0.00 85 1026.3
20260902124120 51 21 0.0 0.0 0.00 0.00 0.00 85 1026.3
20260902123846 51 21 0.0 0.0 0.00 0.00 0.00 85 1026.2
20260902123119 51 21 0.0 0.0 0.00 0.00 0.00 85 1026.3
20260902122842 51 21 0.0 0.0 0.00 0.00 0.00 85 1026.3
20260902122118 51 21 0.0 0.0 0.00 0.00 0.00 85 1026.1
20260902121620 52 21 0.0 0.0 0.00 0.00 0.00 85 1026.2
20260902121600 52 21 0.0 0.0 0.00 0.00 0.00 85 1026.2
20260902120619 52 21 0.0 0.0 0.00 0.00 0.00 84 1026.2
20260902120559 52 21 0.0 0.0 0.00 0.00 0.00 83 1026.2
20260902115614 52 21 0.0 0.0 0.00 0.01 0.00 83 1026.2
20260902115113 52 21 0.0 0.0 0.00 0.01 0.00 82 1026.1
20260902114613 53 21 0.0 0.0 0.00 0.01 0.00 82 1026.2
20260902114114 53 21 0.0 0.0 0.00 0.01 0.00 81 1026.2
20260902113613 53 21 0.0 0.0 0.00 0.01 0.00 81 1025.9
20260902113113 53 21 0.0 0.0 0.00 0.01 0.00 81 1025.9
20260902112613 53 21 0.0 0.0 0.00 0.01 0.00 81 1026.2
20260902112113 53 21 0.0 0.0 0.00 0.01 0.00 80 1026.1
20260902111613 54 21 0.0 0.0 0.00 0.01 0.00 79 1026.1
20260902111114 54 21 0.0 0.0 0.00 0.01 0.00 80 1026.1
20260902110613 54 21 0.0 0.0 0.00 0.01 0.00 80 1025.9
20260902110113 54 21 0.0 0.0 0.00 0.01 0.00 79 1025.9
20260902105838 54 21 0.0 0.0 0.00 0.01 0.00 79 1026.1
20260902105113 54 21 0.0 0.0 0.00 0.01 0.00 80 1026.1
20260902104833 54 21 0.0 0.0 0.00 0.01 0.00 80 1026.1
20260902104113 55 21 0.0 0.0 0.00 0.01 0.00 80 1026.1
20260902103613 55 21 0.0 0.0 0.00 0.01 0.00 80 1025.9
20260902103113 55 21 0.0 0.0 0.00 0.01 0.00 79 1025.8
20260902102613 56 21 0.0 0.0 0.00 0.01 0.00 79 1025.9
20260902102112 56 21 0.0 0.0 0.00 0.01 0.00 78 1025.8
20260902101607 56 21 0.0 0.0 0.00 0.01 0.00 79 1025.8
20260902101104 56 21 0.0 0.0 0.00 0.01 0.00 79 1025.9
20260902100604 56 21 0.0 0.0 0.00 0.01 0.00 78 1025.8
20260902100104 57 21 0.0 0.0 0.00 0.01 0.00 78 1025.8
20260902095604 57 21 0.0 0.0 0.00 0.02 0.00 78 1025.8
20260902095104 57 21 0.0 2.0 0.00 0.03 0.00 78 1025.9
20260902094602 57 21 0.0 2.0 0.00 0.04 0.00 78 1025.9
20260902094102 58 21 1.0 2.0 0.00 0.06 0.00 78 1025.8
20260902093600 58 21 0.0 0.0 0.00 0.06 0.00 78 1025.8
20260902093101 58 21 0.0 1.0 0.00 0.07 0.00 77 1025.9
20260902092601 59 21 0.0 3.0 0.00 0.07 0.00 77 1025.8
20260902092101 59 21 1.0 3.0 0.00 0.08 0.00 77 1025.9
20260902091600 59 21 1.0 5.0 0.00 0.08 0.00 77 1025.9
20260902091325 59 21 1.0 5.0 0.00 0.08 0.00 76 1025.9
20260902090601 60 21 1.0 4.0 0.00 0.08 0.00 76 1025.9
20260902090100 60 21 0.0 0.0 0.00 0.08 0.00 78 1025.9
20260902085601 60 21 0.0 0.0 0.00 0.08 0.00 79 1026.1
20260902085101 60 21 0.0 0.0 0.00 0.08 0.00 79 1025.9
20260902084601 60 21 0.0 0.0 0.00 0.08 0.00 79 1026.1
20260902084058 60 21 0.0 0.0 0.00 0.08 0.00 79 1026.1
20260902083558 60 21 0.0 0.0 0.00 0.08 0.00 79 1025.9
20260902083057 60 21 0.0 0.0 0.00 0.08 0.00 79 1025.9
20260902082557 60 21 0.0 0.0 0.00 0.08 0.00 79 1025.9
20260902082059 60 21 0.0 0.0 0.00 0.08 0.00 79 1026.1
20260902081556 61 21 0.0 0.0 0.00 0.08 0.00 78 1025.9
20260902081055 61 21 0.0 0.0 0.00 0.08 0.00 78 1026.1
20260902080555 61 21 0.0 0.0 0.00 0.08 0.00 77 1026.1
20260902080055 61 21 0.0 0.0 0.00 0.08 0.00 77 1026.2
20260902075554 61 21 0.0 0.0 0.00 0.08 0.00 76 1026.2
20260902075324 61 21 0.0 0.0 0.00 0.08 0.00 76 1026.2
20260902074555 61 21 0.0 0.0 0.00 0.08 0.00 76 1026.2
20260902074055 61 21 0.0 0.0 0.00 0.09 0.00 76 1026.2
20260902073555 61 21 0.0 0.0 0.00 0.09 0.00 76 1026.1
20260902073055 61 21 0.0 0.0 0.00 0.09 0.00 76 1026.1
20260902072751 61 21 0.0 0.0 0.00 0.09 0.00 75 1026.1
20260902071555 61 21 0.0 0.0 0.00 0.09 0.00 73 1026.1
20260902071055 62 21 0.0 0.0 0.00 0.09 0.00 72 1026.1
20260902070552 62 21 0.0 0.0 0.00 0.09 0.00 71 1025.9
20260902070052 62 21 0.0 0.0 0.00 0.09 0.00 70 1026.1
20260902065816 62 21 0.0 0.0 0.00 0.09 0.00 70 1026.1
20260902065052 62 21 0.0 0.0 0.00 0.09 0.00 70 1025.9
20260902064552 62 21 0.0 0.0 0.00 0.09 0.00 70 1025.8
20260902064052 62 21 0.0 0.0 0.00 0.09 0.00 69 1025.8
20260902063814 63 21 0.0 0.0 0.00 0.09 0.00 70 1025.9
20260902063311 63 21 0.0 0.0 0.00 0.09 0.00 70 1025.8
20260902062553 63 21 0.0 0.0 0.00 0.09 0.00 70 1025.9
20260902062052 63 21 0.0 0.0 0.00 0.09 0.00 70 1025.8
20260902061552 63 21 0.0 0.0 0.00 0.09 0.00 71 1025.8
20260902061052 63 21 0.0 0.0 0.00 0.09 0.00 71 1025.8
20260902060552 63 21 0.0 0.0 0.00 0.09 0.00 71 1025.7
20260902060448 64 21 0.0 0.0 0.00 0.09 0.00 72 1025.7
20260902055552 64 21 0.0 0.0 0.00 0.09 0.09 70 1025.8
20260902055052 64 21 0.0 0.0 0.00 0.09 0.09 71 1025.8
20260902054807 64 21 0.0 0.0 0.00 0.09 0.09 71 1025.8
20260902054052 64 21 0.0 0.0 0.00 0.09 0.09 69 1025.8
20260902053552 64 21 0.0 0.0 0.00 0.09 0.09 70 1025.8
20260902053052 64 21 0.0 0.0 0.00 0.09 0.09 70 1025.8
20260902052551 63 21 0.0 0.0 0.00 0.09 0.09 70 1025.9
20260902052052 63 21 0.0 0.0 0.00 0.09 0.09 70 1025.8
20260902051552 63 21 0.0 0.0 0.00 0.09 0.09 70 1025.8
20260902051052 63 21 0.0 0.0 0.00 0.09 0.09 70 1025.9
20260902050552 63 21 0.0 0.0 0.00 0.09 0.09 70 1025.9
20260902050052 63 21 0.0 0.0 0.00 0.09 0.09 70 1025.8
20260902045552 63 21 0.0 0.0 0.00 0.09 0.09 70 1025.8
20260902045052 63 21 0.0 0.0 0.00 0.09 0.09 71 1025.9
20260902044551 63 21 0.0 0.0 0.00 0.10 0.09 72 1026.1
20260902044051 63 21 0.0 0.0 0.00 0.10 0.09 71 1025.9
20260902043552 63 21 0.0 0.0 0.00 0.10 0.09 71 1026.1
20260902043052 63 21 0.0 0.0 0.00 0.10 0.09 71 1026.1
20260902042552 63 21 0.0 0.0 0.00 0.10 0.09 71 1025.9
20260902042052 63 21 0.0 0.0 0.00 0.10 0.09 72 1025.9
20260902042031 63 21 0.0 2.0 0.00 0.10 0.09 71 1025.9
20260902041053 63 21 0.0 3.0 0.00 0.10 0.09 71 1026.1
20260902040551 63 21 2.0 3.0 0.00 0.10 0.09 70 1025.9
20260902040052 63 21 2.0 3.0 0.00 0.10 0.09 71 1025.9
20260902035551 63 21 2.0 3.0 0.00 0.10 0.09 72 1025.9
20260902035542 63 21 1.0 3.0 0.00 0.10 0.09 72 1025.8
20260902034810 63 21 2.0 3.0 0.00 0.11 0.09 73 1025.8
20260902034051 63 21 2.0 3.0 0.00 0.11 0.09 73 1025.8
20260902033552 63 21 1.0 3.0 0.00 0.11 0.09 74 1025.6
20260902033309 63 21 0.0 2.0 0.00 0.11 0.09 73 1025.6
20260902032551 63 21 1.0 3.0 0.00 0.11 0.09 73 1025.6
20260902032052 63 21 2.0 3.0 0.00 0.11 0.09 73 1025.5
20260902031552 63 21 1.0 3.0 0.00 0.11 0.09 73 1025.3
20260902031053 63 21 0.0 0.0 0.00 0.11 0.09 72 1025.3
20260902030552 64 21 0.0 0.0 0.00 0.11 0.09 72 1025.3
20260902030052 64 21 0.0 0.0 0.00 0.11 0.09 71 1025.2
20260902025551 65 21 0.0 0.0 0.00 0.11 0.09 71 1025.0
20260902025052 65 21 0.0 0.0 0.00 0.11 0.09 70 1025.0
20260902024552 65 21 0.0 0.0 0.00 0.11 0.09 69 1025.0
20260902024051 66 21 0.0 0.0 0.00 0.11 0.09 69 1025.0
20260902023551 66 21 0.0 1.0 0.00 0.11 0.09 68 1024.9
20260902023052 67 21 0.0 1.0 0.00 0.11 0.09 67 1024.7
20260902022552 67 21 0.0 0.0 0.00 0.11 0.09 66 1024.6
20260902022052 68 21 0.0 0.0 0.00 0.11 0.09 65 1024.6
20260902021812 68 21 0.0 0.0 0.00 0.11 0.09 64 1024.5
20260902021052 69 21 0.0 0.0 0.00 0.11 0.09 63 1024.6
20260902020818 69 21 0.0 0.0 0.00 0.11 0.09 63 1024.4
20260902020052 69 21 0.0 2.0 0.00 0.11 0.09 62 1024.4
20260902015552 69 21 0.0 2.0 0.00 0.11 0.09 61 1024.4
20260902015051 70 21 0.0 1.0 0.00 0.11 0.09 60 1024.4
20260902014552 70 21 0.0 1.0 0.00 0.11 0.09 60 1024.4
20260902014051 71 21 0.0 2.0 0.00 0.11 0.09 59 1024.2
20260902013807 71 21 0.0 2.0 0.00 0.11 0.09 58 1024.2
20260902013052 71 21 0.0 2.0 0.00 0.11 0.09 57 1024.1
20260902012815 72 21 0.0 2.0 0.00 0.11 0.09 57 1024.2
20260902012051 72 21 0.0 3.0 0.00 0.11 0.09 57 1024.1
20260902012043 72 21 1.0 3.0 0.00 0.11 0.09 55 1024.2
20260902011051 72 21 0.0 3.0 0.00 0.11 0.09 55 1024.2
20260902011032 73 21 0.0 4.0 0.00 0.11 0.09 56 1024.2
20260902010052 72 21 0.0 5.0 0.00 0.11 0.09 56 1024.2
20260902005552 72 21 2.0 9.0 0.00 0.12 0.09 57 1024.4
20260902005052 73 23 2.0 9.0 0.00 0.13 0.09 57 1024.2
20260902004552 73 17 3.0 7.0 0.00 0.13 0.09 57 1024.2
20260902004052 73 18 3.0 9.0 0.00 0.13 0.09 57 1024.2
20260902003551 73 23 2.0 9.0 0.00 0.13 0.09 57 1024.4
20260902003051 73 39 1.0 6.0 0.00 0.13 0.09 58 1024.4
20260902002812 73 41 2.0 7.0 0.00 0.13 0.09 57 1024.2
20260902002052 74 41 4.0 7.0 0.00 0.13 0.09 56 1024.2
20260902001551 74 38 5.0 7.0 0.00 0.13 0.09 55 1024.2
20260902001051 74 51 3.0 6.0 0.00 0.13 0.09 56 1024.4
20260902000811 74 49 3.0 7.0 0.00 0.13 0.09 56 1024.2
20260902000052 75 47 3.0 7.0 0.00 0.13 0.09 56 1024.2
20260901235811 75 47 4.0 7.0 0.00 0.13 0.09 54 1024.2
20260901235051 76 30 4.0 9.0 0.00 0.13 0.09 53 1024.2
20260901234552 77 45 4.0 9.0 0.00 0.13 0.09 52 1024.2
20260901234051 77 32 4.0 10.0 0.00 0.13 0.09 51 1024.1
20260901234034 78 47 5.0 10.0 0.00 0.13 0.09 49 1024.1
20260901233052 79 54 3.0 11.0 0.00 0.13 0.09 49 1024.1
20260901232551 80 34 4.0 11.0 0.00 0.13 0.09 47 1024.0
20260901232534 81 62 7.0 11.0 0.00 0.13 0.09 46 1024.1
20260901231552 82 20 4.0 7.0 0.00 0.13 0.09 46 1024.0
20260901231052 82 14 4.0 7.0 0.00 0.13 0.09 44 1024.0
20260901230552 83 23 3.0 7.0 0.00 0.13 0.09 44 1024.2
20260901230052 83 54 2.0 7.0 0.00 0.13 0.09 43 1024.2
20260901225551 83 7 4.0 7.0 0.00 0.13 0.09 44 1024.2
20260901225052 82 178 2.0 6.0 0.00 0.13 0.09 37 1024.2
20260901224551 82 183 0.0 6.0 0.00 0.13 0.09 37 1024.1
20260901224051 82 189 4.0 10.0 0.00 0.13 0.09 39 1024.2
20260901223552 82 188 3.0 10.0 0.00 0.13 0.09 40 1024.2
20260901223051 82 145 2.0 7.0 0.00 0.13 0.09 40 1024.2
20260901222551 82 125 4.0 7.0 0.00 0.13 0.09 41 1024.2
20260901222052 81 207 2.0 7.0 0.00 0.13 0.09 40 1024.2
20260901221551 80 152 2.0 13.0 0.00 0.13 0.09 42 1024.4
20260901221051 81 159 5.0 13.0 0.00 0.13 0.09 40 1024.4
20260901220552 81 148 4.0 9.0 0.00 0.13 0.09 40 1024.5
20260901220051 80 155 2.0 13.0 0.00 0.13 0.09 41 1024.5
20260901215551 80 212 5.0 13.0 0.00 0.13 0.09 43 1024.5
20260901215051 80 190 5.0 12.0 0.00 0.13 0.09 43 1024.6
20260901214551 81 149 4.0 15.0 0.00 0.13 0.09 41 1024.6
20260901214052 82 147 6.0 15.0 0.00 0.13 0.09 41 1024.6
20260901213552 82 154 7.0 14.0 0.00 0.13 0.09 41 1024.7
20260901213052 83 151 6.0 12.0 0.00 0.13 0.09 40 1024.9
20260901212552 82 186 4.0 9.0 0.00 0.13 0.09 41 1025.0
20260901212318 82 199 4.0 9.0 0.00 0.13 0.09 42 1025.0
20260901211817 81 152 5.0 9.0 0.00 0.13 0.09 40 1025.1
20260901211051 81 219 4.0 11.0 0.00 0.13 0.09 41 1025.2
20260901210551 81 192 3.0 11.0 0.00 0.13 0.09 41 1025.2
20260901210052 81 151 4.0 12.0 0.00 0.13 0.09 45 1025.3
20260901205551 80 237 4.0 12.0 0.00 0.13 0.09 45 1025.6
20260901205051 80 305 4.0 12.0 0.00 0.13 0.09 45 1025.7
20260901204550 79 171 4.0 10.0 0.00 0.13 0.09 47 1025.7
20260901204051 78 216 5.0 11.0 0.00 0.13 0.09 51 1025.7
20260901203818 78 190 4.0 13.0 0.00 0.13 0.09 49 1025.7
20260901203051 77 173 6.0 13.0 0.00 0.13 0.09 49 1025.7
20260901202810 77 186 3.0 11.0 0.00 0.13 0.09 49 1025.8
20260901202051 77 213 4.0 11.0 0.00 0.13 0.09 48 1025.8
20260901201551 78 212 5.0 13.0 0.00 0.13 0.09 50 1025.8
20260901201050 78 182 6.0 13.0 0.00 0.13 0.09 48 1025.9
20260901200551 79 204 6.0 11.0 0.00 0.13 0.09 48 1025.9
20260901200051 79 135 6.0 14.0 0.00 0.13 0.09 46 1025.9
20260901195551 79 219 4.0 14.0 0.00 0.13 0.09 48 1025.9
20260901195051 79 190 6.0 12.0 0.00 0.13 0.09 47 1025.9
20260901194816 79 151 5.0 12.0 0.00 0.13 0.09 47 1025.9
20260901194051 79 183 6.0 12.0 0.00 0.13 0.09 46 1026.1
20260901193551 79 183 4.0 12.0 0.00 0.13 0.09 46 1026.2
20260901193050 80 157 7.0 12.0 0.00 0.13 0.09 43 1026.1
20260901192551 79 155 4.0 11.0 0.00 0.13 0.09 44 1026.2
20260901192050 78 189 4.0 11.0 0.00 0.13 0.09 46 1026.3
20260901191551 79 178 5.0 10.0 0.00 0.13 0.09 45 1026.4
20260901191317 79 189 3.0 10.0 0.00 0.13 0.09 47 1026.4
20260901190551 79 190 4.0 11.0 0.00 0.13 0.09 48 1026.4
20260901190051 78 241 5.0 11.0 0.00 0.13 0.09 52 1026.7
20260901185551 77 200 3.0 7.0 0.00 0.13 0.09 52 1026.7
20260901185050 77 176 2.0 10.0 0.00 0.13 0.09 55 1026.8
20260901184551 76 240 4.0 10.0 0.00 0.13 0.09 57 1026.9
20260901184051 75 180 3.0 9.0 0.00 0.13 0.09 57 1026.9
20260901183550 74 173 4.0 7.0 0.00 0.13 0.09 54 1027.2
20260901183051 74 140 4.0 7.0 0.00 0.13 0.09 58 1027.0
20260901182551 73 93 1.0 6.0 0.00 0.13 0.09 62 1027.0
20260901182051 73 92 1.0 6.0 0.00 0.13 0.09 61 1027.2
20260901181551 72 71 1.0 4.0 0.00 0.13 0.09 63 1027.3
20260901181050 71 71 1.0 4.0 0.00 0.13 0.09 66 1027.2
20260901180812 71 71 2.0 4.0 0.00 0.13 0.09 66 1027.3
20260901180052 70 71 1.0 3.0 0.00 0.13 0.09 68 1027.4
20260901175813 70 71 1.0 3.0 0.00 0.13 0.09 68 1027.5
20260901175315 70 71 0.0 3.0 0.00 0.13 0.09 68 1027.5
20260901174551 70 71 0.0 3.0 0.00 0.13 0.09 70 1027.6
20260901174052 70 71 0.0 3.0 0.00 0.13 0.09 70 1027.5
20260901173551 70 71 0.0 3.0 0.00 0.13 0.09 72 1027.6
20260901173050 70 71 0.0 3.0 0.00 0.13 0.09 71 1027.6
20260901172551 69 71 0.0 4.0 0.00 0.13 0.09 72 1027.6
20260901172051 69 71 0.0 4.0 0.00 0.13 0.09 73 1027.8
20260901171552 69 71 1.0 3.0 0.00 0.13 0.09 72 1027.8
20260901171051 69 71 0.0 3.0 0.00 0.13 0.09 74 1027.8
20260901170551 69 71 1.0 3.0 0.00 0.13 0.09 73 1027.8
20260901170316 69 71 0.0 5.0 0.00 0.13 0.09 73 1027.8
20260901165551 70 71 2.0 5.0 0.00 0.13 0.09 72 1027.8
20260901165052 70 66 0.0 4.0 0.00 0.13 0.09 72 1027.6
20260901164551 70 66 1.0 6.0 0.00 0.13 0.09 72 1027.5
20260901164051 70 66 1.0 6.0 0.00 0.13 0.09 73 1027.6
20260901163811 69 69 3.0 6.0 0.00 0.13 0.09 79 1027.8
20260901163314 69 41 2.0 6.0 0.00 0.13 0.09 79 1027.5
20260901162810 68 37 2.0 5.0 0.00 0.13 0.09 79 1027.5
20260901162309 67 34 1.0 5.0 0.00 0.13 0.09 84 1027.5
20260901161551 66 37 1.0 6.0 0.00 0.13 0.09 84 1027.5
20260901161051 65 35 2.0 6.0 0.00 0.13 0.09 86 1027.4
20260901160551 64 28 0.0 5.0 0.00 0.13 0.09 87 1027.4
20260901160310 63 28 4.0 5.0 0.00 0.13 0.09 88 1027.3
20260901160039 63 27 1.0 6.0 0.00 0.13 0.09 88 1027.3